Wind_Speed
8 8 8 8 9 10 10 10 11 12 12 10 8 6 2 2 1 1 7 6 1 4 3 2 2 0 2 2 1 1 1 1 0 1 1 0 0 1 1 2 2 2 2 1 2 3 2 3 3 3 3 2 2 1 4 4 1 2 1 1 0 1 2 1 4 5 3 3 3 3 2 3 1 1 1 3 2 3 5 5 3 2 3 2 1 5 6
8 8 8 8 8 9 9 9 10 11 12 12 9 3 2 2 3 1 7 7 2 3 0 1 2 3 2 2 1 1 1 2 1 1 2 1 1 1 1 2 1 1 1 1 2 3 1 2 2 1 2 2 1 2 3 3 2 2 0 1 0 1 0 1 3 6 6 5 5 5 4 1 2 3 1 2 4 5 3 2 2 2 5 7 4 9 8
8 8 8 8 8 9 8 8 9 10 11 13 9 2 2 1 1 2 5 7 5 3 3 4 2 2 1 2 2 1 0 1 2 2 2 1 2 1 1 1 1 1 1 1 0 1 0 2 2 2 1 3 2 3 3 3 2 1 2 1 1 2 1 1 0 3 5 6 6 4 2 2 2 2 2 3 4 5 3 1 2 3 4 6 5 9 11
9 9 8 8 8 9 8 7 8 8 9 11 7 2 2 2 1 3 5 6 6 3 1 4 4 2 1 1 2 0 1 2 0 2 2 1 2 1 1 0 1 1 1 0 1 2 1 1 2 1 2 4 2 2 2 2 2 2 3 3 3 1 1 2 5 6 6 8 7 2 1 3 6 6 5 5 4 5 4 3 2 4 2 2 7 10 14
10 9 9 9 8 9 8 7 6 6 8 9 5 4 3 1 1 0 2 3 4 4 3 4 3 1 2 1 1 1 2 3 1 1 1 0 1 0 0 1 2 2 2 1 1 2 1 2 0 2 3 3 3 0 2 3 4 4 3 2 3 3 2 3 6 8 10 11 10 5 2 5 10 10 8 5 5 5 6 6 10 4 2 6 10 7 9
10 10 9 9 9 10 9 7 5 4 6 7 4 3 3 1 1 1 1 1 1 2 2 2 4 2 0 1 1 0 1 2 2 2 1 1 0 1 0 2 4 5 4 2 1 1 2 1 2 2 1 2 3 3 2 2 4 4 2 2 3 5 3 4 4 6 11 11 11 9 6 7 8 10 11 7 6 8 10 13 14 5 2 12 15 10 11
11 10 10 10 10 10 9 7 5 4 5 6 3 1 1 2 1 1 2 0 2 1 1 2 5 2 1 1 1 2 2 4 4 2 1 2 1 2 2 5 4 4 3 2 1 2 1 2 4 2 1 1 1 2 1 1 3 2 2 2 1 4 3 3 2 5 11 11 11 9 6 6 6 8 10 8 8 11 11 12 13 7 9 16 18 17 17
11 11 11 11 10 10 8 7 6 4 4 5 2 2 0 1 2 1 2 2 1 1 2 2 3 1 1 0 2 2 4 5 4 1 3 1 2 2 3 4 2 2 4 4 3 6 5 1 3 3 2 2 2 2 2 2 2 2 1 1 1 1 2 1 3 3 9 9 7 5 3 5 7 9 10 7 6 7 7 8 8 6 9 13 13 13 12
11 11 10 10 9 8 7 6 6 6 4 3 1 2 1 1 2 2 3 1 1 1 2 2 3 0 1 1 2 1 4 6 3 1 2 2 3 5 5 3 1 2 2 4 7 7 6 4 5 6 4 3 3 2 2 5 4 1 1 0 1 1 2 2 5 3 7 4 5 7 7 6 5 8 9 5 2 3 4 5 6 6 7 9 8 6 7
11 10 10 10 9 9 8 7 7 7 5 3 1 2 3 2 1 2 3 0 2 1 1 2 2 1 2 2 2 1 3 3 2 1 1 2 1 4 6 5 2 1 2 6 7 6 5 5 5 4 3 1 2 1 1 5 5 4 4 1 1 3 2 1 3 1 6 4 5 8 9 6 3 4 4 2 3 3 3 4 6 7 5 5 5 5 7
11 11 11 11 11 11 10 9 8 8 8 6 3 2 4 4 1 2 4 1 3 1 1 1 0 1 2 2 1 1 1 1 1 2 2 1 2 1 4 5 1 2 4 4 3 2 2 2 1 3 4 5 5 3 4 5 3 2 5 3 0 3 4 1 1 1 5 7 8 7 6 3 3 3 1 2 5 4 4 8 11 6 4 4 5 6 10
10 10 10 10 9 10 10 10 10 11 10 9 7 4 4 4 2 3 5 1 3 1 1 3 3 2 1 1 1 2 2 2 2 1 2 2 1 2 2 4 2 2 2 2 1 2 1 1 1 2 5 6 5 6 7 6 4 2 3 5 3 3 4 1 1 1 4 6 7 6 3 4 6 3 2 4 6 6 7 9 11 5 3 4 7 9 11
9 8 8 9 9 9 9 9 9 11 12 12 10 7 6 5 3 3 5 2 3 2 1 3 2 1 1 1 1 2 2 2 2 1 0 1 1 2 0 3 2 1 1 3 2 3 1 2 2 1 2 4 4 5 6 6 5 4 3 4 5 5 4 2 2 1 2 3 4 2 6 6 3 1 1 3 3 2 3 7 8 5 2 4 9 12 14
8 8 9 9 9 8 8 7 7 8 10 12 12 9 8 7 3 2 4 2 3 4 2 2 3 2 2 3 2 0 2 2 3 1 1 1 1 3 3 2 2 2 1 1 3 3 1 2 4 3 3 3 3 3 3 3 3 4 4 2 3 6 4 1 1 1 1 0 2 3 6 7 5 4 4 3 3 4 4 5 6 4 1 6 12 14 16
8 9 9 9 8 7 6 5 4 4 6 9 11 9 8 8 5 1 3 4 1 3 2 1 2 3 3 3 3 2 2 3 2 1 1 1 1 3 4 3 2 3 1 2 3 3 2 1 3 3 4 3 2 3 1 1 1 2 2 2 3 3 2 3 2 1 2 1 3 4 5 3 2 4 6 4 4 4 3 2 5 4 2 9 12 14 16
8 9 9 9 8 6 4 3 2 2 4 7 9 9 8 8 6 3 3 5 3 2 2 2 3 4 3 1 2 1 1 1 0 2 4 3 2 2 3 2 1 1 2 4 3 3 3 1 2 1 2 2 1 3 2 1 2 2 3 4 6 5 2 4 2 1 2 2 1 2 2 4 3 5 10 6 3 3 1 1 5 5 6 12 12 13 15
8 8 8 7 6 5 3 2 0 2 4 7 8 8 7 7 7 4 2 4 3 1 1 2 2 3 3 1 1 1 1 2 1 1 2 2 2 3 3 2 1 0 2 3 3 3 4 2 2 1 3 3 2 2 2 1 2 4 3 4 5 5 4 3 1 2 1 2 1 3 4 5 3 6 11 8 2 4 3 5 6 6 11 13 12 13 14
7 7 6 6 4 3 2 1 2 3 5 7 6 6 6 5 7 6 3 4 2 1 1 1 1 1 2 1 2 2 1 1 1 1 2 2 1 1 2 1 1 1 1 2 2 3 3 1 1 1 3 3 1 1 2 1 2 3 1 2 2 2 2 1 2 2 2 3 2 3 4 5 4 7 10 7 1 5 4 7 7 10 15 14 12 14 13
6 6 5 5 4 4 4 4 4 5 5 4 3 4 3 3 6 8 4 3 2 1 0 1 0 0 0 0 1 1 1 1 2 2 2 3 1 2 0 1 0 0 1 2 2 2 1 2 1 3 1 4 1 1 0 1 2 0 1 1 1 1 1 1 1 2 1 3 2 3 5 4 2 7 8 5 3 3 5 7 8 11 14 13 13 13 12
5 5 5 5 5 5 5 6 6 5 4 3 2 2 1 1 5 8 4 2 3 2 0 0 0 0 1 0 1 2 0 1 2 3 2 0 2 2 3 4 1 0 2 2 1 1 1 2 2 1 2 3 2 1 1 3 2 0 1 1 1 1 1 2 2 3 0 1 0 2 4 4 3 8 8 5 4 5 7 9 10 11 11 12 12 11 10
4 4 5 5 5 6 6 6 6 4 3 2 1 1 1 0 5 7 4 2 4 3 1 2 1 1 1 1 1 2 2 1 0 1 2 1 1 2 1 2 2 2 1 1 1 1 1 3 2 1 2 2 1 0 1 2 4 2 2 2 1 1 1 2 3 2 2 1 2 2 4 5 5 7 6 6 6 6 6 8 11 11 11 10 10 11 12
5 5 5 6 5 5 5 5 4 4 4 2 0 1 1 3 7 6 2 4 9 8 4 3 3 3 3 3 2 1 1 1 1 0 2 1 1 0 1 1 1 2 2 2 1 1 1 2 1 0 1 1 1 0 1 1 2 4 1 2 1 2 1 1 3 3 1 3 6 5 6 7 6 4 6 9 8 6 6 9 11 11 10 9 10 12 15
6 6 6 6 5 5 4 4 4 4 5 4 2 1 3 7 8 7 6 10 13 9 5 5 4 3 3 3 3 2 1 1 1 1 2 2 1 1 1 1 0 1 0 1 1 2 2 2 1 1 1 2 1 2 2 1 1 2 2 2 1 2 1 1 2 3 4 5 6 6 7 9 10 10 9 8 7 7 8 10 11 11 11 11 10 12 15
6 6 6 6 6 6 6 5 5 5 5 5 5 4 4 7 8 7 6 7 7 5 2 2 1 1 1 1 2 1 2 2 1 1 0 1 1 1 1 0 1 1 1 0 1 2 2 1 1 2 1 2 2 2 1 1 0 1 2 3 4 3 1 1 1 3 5 4 6 8 9 10 14 15 11 8 8 9 9 10 12 13 13 13 14 15 16
5 6 6 6 7 7 7 7 7 6 5 5 5 4 3 4 6 4 2 2 3 4 2 2 2 1 1 1 1 1 4 3 1 1 1 1 0 0 1 1 1 0 1 0 1 2 3 0 1 2 2 3 1 1 1 1 1 2 3 4 5 3 3 3 3 3 4 7 10 12 11 11 12 11 8 8 11 13 12 11 12 13 14 16 17 17 15
5 5 5 6 6 7 8 8 8 8 7 5 3 1 0 1 3 2 0 2 3 4 4 0 2 1 1 1 1 1 4 3 1 1 1 2 1 0 1 1 1 1 1 2 2 3 3 2 2 3 2 2 1 2 1 1 2 2 4 4 3 3 4 4 4 4 5 7 10 13 14 12 9 7 8 10 12 14 16 15 14 14 15 17 19 20 17
4 4 4 4 5 5 6 6 7 8 7 6 5 3 1 1 2 1 1 0 0 2 2 1 2 2 1 1 0 2 4 2 1 1 1 2 1 1 1 2 2 1 3 4 2 2 4 3 1 2 3 1 2 2 1 1 3 4 4 4 3 4 6 5 5 5 6 8 9 11 12 12 10 11 14 14 13 16 17 16 16 17 17 17 19 22 23
5 3 3 3 4 3 2 3 7 8 6 4 4 5 5 4 4 2 2 0 1 2 3 2 1 1 1 1 1 3 3 3 2 2 2 2 2 2 1 2 1 2 3 2 1 2 3 2 1 1 1 0 1 2 1 2 3 4 5 5 4 5 7 7 6 6 9 11 11 9 8 11 13 16 17 15 15 16 17 18 19 19 19 18 18 21 23
6 4 3 3 2 0 3 5 8 8 7 3 1 0 1 3 5 6 4 2 4 5 5 3 1 1 0 1 2 2 3 4 3 3 2 2 2 2 2 2 2 2 3 3 2 2 2 1 2 1 0 1 1 1 1 3 3 3 5 6 5 5 6 7 7 9 10 11 11 10 10 12 15 17 16 16 15 15 17 20 21 19 22 23 20 20 22
6 5 4 2 1 1 3 5 7 8 7 2 1 1 2 2 5 6 4 2 2 3 4 4 1 1 1 1 1 2 2 3 3 3 3 2 2 2 2 2 2 2 3 3 2 2 1 0 1 1 2 0 2 2 2 3 2 1 5 8 8 7 7 7 7 8 10 11 11 12 13 14 15 16 15 15 17 18 18 19 21 22 27 29 24 21 25
4 4 3 3 3 3 4 6 7 9 8 3 1 2 2 1 4 6 4 2 1 2 4 4 1 1 2 1 1 2 2 2 3 3 3 3 3 3 3 2 2 3 3 2 1 2 1 1 2 2 3 3 4 4 3 3 2 4 8 11 9 8 8 8 8 8 10 12 13 15 15 13 12 13 13 14 20 23 19 19 25 29 30 31 29 27 29
5 4 3 3 3 4 4 6 7 7 7 7 5 4 3 2 5 6 2 1 1 1 3 3 1 1 2 1 1 2 2 2 2 3 3 2 2 2 3 3 2 3 3 2 2 2 1 1 1 1 2 3 4 4 3 5 5 7 11 12 9 8 8 9 9 9 9 11 13 15 16 15 13 14 15 17 23 26 22 22 31 35 33 32 31 28 27
6 6 5 4 5 5 5 6 6 4 4 5 6 6 5 6 7 5 1 1 1 1 3 3 1 1 1 0 0 2 3 1 1 2 3 2 1 1 2 3 2 3 4 2 1 0 0 1 2 2 2 2 3 4 4 5 6 8 11 10 9 9 9 8 8 8 9 12 13 12 14 17 19 20 22 23 25 26 23 26 32 34 31 26 22 21 23
7 7 6 5 5 5 5 5 5 4 3 2 4 5 6 8 9 8 4 1 1 3 4 4 2 1 3 1 1 3 3 1 2 3 2 2 2 1 1 3 2 3 3 3 1 1 2 1 2 2 3 3 3 4 4 7 9 10 10 10 10 10 10 8 8 8 10 13 15 14 16 19 21 21 22 22 21 22 24 27 29 26 22 18 16 19 22
7 7 6 5 6 5 5 4 4 3 2 2 2 3 4 5 8 11 10 5 2 2 2 3 3 2 3 4 3 3 3 2 1 1 1 1 2 2 1 1 3 2 2 2 2 2 2 1 2 2 2 3 4 4 4 8 11 11 11 11 12 12 11 12 12 13 13 14 15 15 17 19 18 18 18 16 15 18 22 24 23 20 17 16 17 18 18
7 6 6 6 6 4 3 1 2 2 2 1 2 3 2 1 1 6 9 10 9 4 2 1 3 3 2 3 3 4 5 3 1 1 1 1 2 2 2 3 3 1 1 2 2 2 2 1 2 3 3 3 3 3 3 7 10 12 12 12 12 11 10 12 14 16 17 17 15 14 16 17 16 15 14 13 14 18 20 20 19 19 19 19 19 17 16
7 6 5 5 3 2 1 1 1 2 2 1 0 2 3 1 0 2 4 7 11 9 5 3 2 1 0 2 3 4 6 3 2 3 3 1 1 2 2 3 2 1 2 4 2 1 2 2 3 4 3 2 3 2 3 5 8 10 11 11 12 11 9 9 13 17 20 22 21 19 19 20 18 14 12 14 16 16 17 17 17 18 18 19 17 17 21
5 4 3 2 1 2 1 0 1 2 2 0 2 2 2 2 2 3 2 3 6 7 6 5 2 1 1 1 3 4 4 2 1 3 2 1 1 2 1 2 1 0 2 2 2 1 2 3 3 4 3 1 1 1 3 5 6 7 8 10 12 12 10 11 16 18 18 20 23 22 22 23 24 22 20 21 20 17 16 17 18 19 20 19 19 22 27
3 1 1 2 2 1 1 1 2 1 1 2 2 1 2 3 3 2 3 3 3 3 4 4 1 1 2 3 4 3 4 3 3 4 2 1 1 2 1 1 1 1 2 1 2 1 3 2 2 3 2 1 4 4 5 7 8 8 11 16 18 15 14 16 19 19 17 16 18 18 18 20 22 22 22 21 20 20 22 23 24 24 24 23 25 27 25
0 1 1 1 1 1 1 1 1 1 2 2 2 1 2 3 3 1 1 3 3 2 2 2 0 2 1 2 2 3 4 4 2 1 1 1 1 1 2 1 0 2 2 1 1 2 2 0 2 3 1 4 6 6 7 9 9 10 16 22 20 17 18 21 23 24 23 22 21 21 21 21 22 23 23 20 18 20 23 25 27 29 29 30 32 30 26
1 1 1 1 2 3 3 4 3 2 2 2 3 3 2 2 2 1 2 4 4 2 2 2 3 3 3 2 1 2 3 3 2 2 1 1 1 1 2 1 1 2 1 2 1 2 3 2 2 2 2 4 6 7 10 11 10 12 20 24 21 19 24 27 28 29 27 24 24 26 25 24 24 26 26 25 22 21 21 25 31 35 36 36 34 33 35
1 2 3 4 5 3 2 4 5 4 2 2 2 2 1 1 2 3 2 2 1 2 2 2 2 4 4 2 1 2 1 3 2 2 2 2 1 1 1 2 2 3 1 2 1 3 4 3 2 3 3 5 7 9 12 13 12 15 21 23 21 23 28 29 29 30 27 24 25 28 26 26 28 30 29 29 29 27 27 32 37 40 40 37 35 37 41
4 4 5 4 4 3 3 3 4 3 3 3 3 2 2 3 2 2 2 1 1 1 2 2 3 4 4 2 1 1 1 2 2 1 1 1 1 2 2 2 2 2 1 1 3 4 3 0 2 3 4 6 8 11 14 14 14 17 19 20 22 27 31 29 28 28 27 26 26 27 27 30 32 31 29 29 32 35 37 39 38 37 38 37 36 39 42
4 2 2 2 3 4 3 2 3 3 3 2 1 1 2 4 2 1 2 2 1 2 2 2 3 4 3 2 1 1 1 1 1 1 1 1 1 2 3 2 1 1 1 2 3 2 1 2 3 3 6 8 10 13 14 14 14 14 16 20 26 30 30 29 28 27 26 26 27 28 31 32 31 27 27 31 34 36 39 40 38 37 36 35 35 36 38
1 2 4 3 3 3 2 1 2 3 3 1 0 3 1 1 2 2 2 1 1 2 3 2 2 1 3 3 1 1 1 1 2 1 1 1 2 2 1 0 1 2 3 3 2 2 2 3 3 5 8 11 13 13 13 13 15 16 16 20 26 29 28 28 28 25 25 27 28 29 31 30 27 27 30 33 35 35 35 35 37 38 37 35 35 36 39
2 1 3 4 2 2 1 2 2 2 1 0 1 2 3 3 4 5 2 0 1 3 5 3 0 1 3 2 1 1 1 2 2 1 0 2 2 1 1 1 3 4 4 3 2 2 3 5 5 7 11 14 14 13 12 14 18 19 16 16 22 27 29 29 28 26 28 31 30 27 27 28 28 29 31 33 34 35 34 33 35 35 34 34 36 40 42
3 1 3 4 1 2 2 2 1 1 1 2 3 4 4 3 3 2 0 0 1 3 4 3 1 1 2 2 1 1 1 2 2 1 1 2 1 2 2 3 2 1 1 1 3 4 4 5 7 9 12 13 13 13 13 14 16 18 18 18 23 27 29 29 27 28 32 33 28 25 28 30 31 32 32 33 34 34 33 34 35 35 35 36 40 42 43
2 1 3 2 1 1 2 1 2 1 1 0 2 3 3 2 1 2 2 2 2 3 3 2 0 0 1 1 1 1 2 2 2 1 1 2 2 2 3 3 2 2 2 2 3 5 6 7 9 10 11 11 12 13 12 12 15 18 20 23 26 28 29 29 28 30 32 31 26 27 31 33 33 33 33 32 31 32 33 34 35 36 38 42 44 44 44
6 4 3 2 2 1 1 2 2 2 2 3 2 2 3 3 2 4 3 2 2 3 2 1 1 1 1 1 2 2 2 2 2 2 3 4 3 1 1 1 3 4 2 2 3 6 8 8 9 10 10 10 11 12 12 13 17 21 23 24 26 28 28 29 29 30 29 28 28 30 33 33 33 34 34 31 29 31 34 36 37 39 42 44 44 43 43
8 5 3 2 3 1 1 1 3 2 4 5 4 3 4 3 3 4 3 2 2 2 1 1 1 1 1 1 3 3 2 1 1 2 3 2 1 1 1 1 3 4 4 4 5 7 8 8 9 10 11 11 12 12 12 14 20 25 26 27 27 27 27 28 28 28 28 30 31 32 33 34 34 33 32 31 32 33 34 36 38 41 43 44 41 40 42
6 5 2 1 2 1 0 2 3 1 3 4 3 3 3 2 2 4 6 5 3 3 4 2 0 2 3 3 2 1 1 1 2 3 2 0 1 2 1 3 4 4 6 7 7 7 7 7 7 9 10 12 14 14 15 18 24 28 28 27 27 27 28 27 26 27 30 31 31 32 34 35 34 33 32 33 34 33 32 33 37 41 43 42 39 39 42
3 3 1 1 2 2 2 3 3 1 1 1 2 2 2 2 4 7 8 6 3 3 1 0 1 3 4 2 1 1 2 2 3 2 1 1 1 2 1 4 5 6 7 7 7 6 7 8 11 13 14 15 16 18 20 25 28 28 27 27 28 28 26 25 27 30 31 31 32 34 36 35 34 33 34 34 32 28 27 32 39 44 44 40 39 41 44
Wind_Direction
332 328 325 325 332 339 343 347 349 354 0 1 359 359 35 94 206 310 17 10 41 71 42 321 7 43 256 303 266 244 79 119 40 305 300 355 91 17 330 198 189 214 204 147 172 200 205 186 193 225 233 237 257 347 355 333 359 81 101 261 277 110 87 7 282 286 310 331 360 26 56 93 117 264 149 139 152 140 159 192 197 210 224 141 90 275 277
326 321 318 320 325 333 341 346 348 357 7 8 4 4 143 169 221 293 11 6 79 113 175 280 321 289 295 1 314 255 186 165 164 231 247 223 158 153 247 206 190 214 160 109 186 206 213 214 218 211 220 247 5 30 350 345 38 60 152 156 4 278 195 57 329 324 332 343 354 350 351 42 218 254 230 163 125 101 116 169 122 267 225 166 180 267 265
322 315 312 315 318 326 335 340 345 354 6 11 11 25 155 90 299 292 352 20 68 126 179 155 169 255 336 351 292 293 306 209 185 201 225 203 169 179 274 226 125 97 97 67 227 222 280 261 297 20 245 264 355 38 352 348 44 5 317 336 321 252 205 125 285 298 300 304 311 307 298 291 255 236 220 208 151 138 171 178 126 245 236 161 179 259 275
318 312 309 310 313 321 324 326 337 353 5 10 15 51 101 64 5 312 330 17 58 65 113 111 119 166 166 302 299 120 250 279 259 177 204 181 152 193 302 172 84 71 125 112 275 268 336 32 352 343 258 271 321 43 26 37 45 346 332 3 54 93 258 209 193 210 238 259 267 248 88 299 282 272 239 205 190 173 135 95 203 220 223 216 227 252 281
315 311 309 310 310 312 311 308 319 348 4 5 13 44 61 93 169 352 327 347 33 34 21 59 80 166 188 210 257 214 254 302 348 177 219 140 119 220 204 161 171 181 184 197 250 263 17 55 287 244 237 266 301 4 99 66 13 346 329 357 78 89 295 247 201 224 247 261 274 288 320 275 269 273 266 221 185 168 151 203 238 222 78 280 262 250 271
314 311 309 308 304 302 300 294 301 337 358 356 6 35 38 59 188 153 109 266 283 23 9 75 92 71 143 158 189 269 292 287 249 216 317 12 184 200 245 252 218 193 177 149 189 297 344 296 248 248 261 296 332 2 65 51 349 344 355 350 97 125 251 247 191 251 267 270 276 276 268 261 255 264 271 254 191 182 194 228 243 222 197 266 275 279 278
313 310 307 303 298 295 291 284 288 315 334 340 11 72 34 57 133 308 28 33 204 206 345 105 109 87 77 117 206 188 198 244 244 200 70 352 291 188 237 271 251 205 184 130 158 233 257 290 270 224 204 275 321 339 335 35 342 1 61 354 115 149 240 244 153 287 280 271 273 270 258 264 270 267 267 256 220 210 215 240 255 247 241 260 276 285 286
308 305 301 297 293 289 286 283 280 283 305 324 20 117 199 105 174 242 36 52 121 38 20 87 104 58 18 214 250 184 180 227 254 195 157 229 272 183 219 262 256 197 184 157 207 218 180 211 261 180 166 277 215 220 228 154 38 18 81 351 293 188 268 222 104 317 282 271 285 289 255 257 276 283 278 264 246 236 229 245 262 257 252 262 276 286 285
303 300 297 296 297 294 291 285 271 264 284 318 58 125 181 158 164 149 115 108 314 2 13 87 104 357 296 214 229 213 205 215 222 239 203 177 190 185 186 194 107 90 155 197 240 233 179 196 231 184 186 241 210 213 208 145 128 104 162 51 57 165 270 6 60 349 282 288 344 323 302 291 287 297 296 275 213 222 222 226 229 220 246 279 294 292 285
300 300 300 299 300 296 291 284 266 250 251 263 97 146 178 164 141 107 110 124 292 71 44 38 76 256 246 205 203 237 246 228 188 273 312 68 115 194 177 160 123 71 197 224 240 230 197 223 240 193 184 188 131 133 113 124 136 166 167 136 102 145 159 16 56 306 275 310 344 314 314 335 329 308 302 243 219 252 255 267 254 219 222 285 290 276 290
302 302 300 296 290 283 275 266 255 242 235 233 224 207 192 175 165 70 82 13 292 70 69 323 165 211 221 199 210 233 260 260 205 232 280 20 23 313 152 139 134 244 219 230 241 208 196 218 168 113 89 76 79 77 77 82 83 142 146 140 191 128 122 142 137 218 275 301 324 326 344 351 269 247 156 227 273 274 248 283 289 258 196 233 263 283 300
303 300 297 296 294 291 282 268 253 241 232 229 226 234 227 194 166 85 95 149 275 358 18 253 214 199 229 178 192 230 222 230 227 223 277 277 324 353 121 129 130 239 244 311 353 130 108 56 115 89 55 58 66 64 62 57 26 8 118 128 135 123 115 152 174 170 266 306 354 0 328 254 245 236 196 234 249 224 216 263 282 265 203 263 290 302 305
304 305 307 308 311 309 302 289 265 245 236 232 227 231 231 202 162 96 111 145 254 212 194 282 258 211 267 228 201 255 254 267 286 265 240 286 293 306 295 148 158 219 327 357 50 121 112 345 343 319 1 28 45 49 44 34 14 7 38 96 125 137 138 158 174 190 276 340 28 341 275 286 313 338 265 259 269 268 282 292 278 231 191 327 323 320 321
314 316 318 317 318 317 308 299 280 253 238 230 226 228 225 204 176 105 117 121 274 230 187 326 311 252 239 222 177 53 317 317 316 273 129 39 270 255 248 215 234 320 352 26 45 60 30 3 19 350 332 10 17 4 19 21 23 29 9 359 122 135 141 168 253 226 164 204 275 274 304 331 6 12 327 315 321 311 303 303 281 225 182 345 335 330 328
320 324 329 326 327 329 320 307 288 258 232 222 218 214 209 204 201 186 139 133 250 256 213 259 248 198 199 206 160 92 345 330 327 292 304 14 266 244 237 231 276 320 22 90 55 49 41 20 30 354 334 1 351 313 319 353 354 43 34 13 73 102 145 171 213 266 94 65 308 328 341 317 281 319 312 281 253 252 219 239 269 249 334 348 341 332 327
330 332 336 334 333 333 329 323 298 250 212 201 199 192 191 199 197 177 121 114 116 270 252 198 160 138 133 184 185 160 276 263 246 326 331 339 329 286 266 266 295 314 62 63 63 76 58 33 148 148 297 254 228 293 305 326 325 3 43 48 53 39 37 111 118 332 54 92 261 279 274 246 238 324 327 312 253 229 183 289 270 269 335 347 338 326 324
340 339 338 338 338 337 337 338 329 181 177 178 181 183 189 198 196 191 122 92 103 276 257 157 132 114 108 90 261 197 181 170 142 22 346 317 312 316 310 324 2 232 76 53 35 65 70 66 139 157 274 239 157 302 304 2 334 320 354 41 49 27 9 55 93 272 163 134 212 239 246 252 271 326 327 318 205 133 45 327 288 304 335 338 330 321 320
346 345 346 351 353 2 19 46 112 132 155 168 175 187 200 210 211 204 156 95 111 264 308 119 136 116 124 181 211 185 161 134 107 53 355 317 284 261 282 310 67 335 9 86 58 60 86 182 170 158 257 266 84 317 296 340 301 294 336 74 56 28 6 60 140 202 189 178 225 268 267 261 287 318 315 310 99 86 17 311 297 323 329 325 323 318 314
356 357 2 16 27 42 58 76 97 114 138 160 182 205 219 227 209 196 159 90 105 211 304 112 162 269 282 245 157 147 133 104 114 111 31 348 264 193 184 7 175 302 27 92 109 97 115 263 252 139 228 295 314 131 254 267 253 260 68 26 7 39 6 17 120 170 181 172 200 293 288 244 273 321 319 335 20 3 310 296 305 319 317 315 317 313 311
10 15 23 38 51 63 74 82 89 99 111 117 157 198 230 255 199 187 172 114 107 100 22 209 145 311 313 21 117 143 132 68 110 133 125 256 214 132 44 352 299 76 28 41 112 129 155 244 264 163 192 260 254 132 301 299 296 191 187 262 273 188 226 312 232 195 60 25 21 329 286 248 350 353 346 3 1 298 289 304 311 310 311 312 311 308 312
34 41 52 61 70 77 79 82 83 81 81 86 134 197 3 36 175 174 181 154 117 103 244 222 149 81 58 52 126 153 134 103 138 173 171 218 226 123 99 274 220 160 183 163 147 281 203 188 233 248 202 240 287 228 238 331 344 300 205 169 190 194 141 332 267 208 86 14 258 264 277 289 353 10 339 316 305 281 289 311 312 312 316 314 310 310 313
59 64 71 73 78 85 82 80 74 57 43 41 295 248 94 123 150 159 148 88 93 92 109 127 102 79 79 73 68 102 103 66 2 352 136 134 287 175 149 188 186 185 193 129 83 314 235 160 182 240 234 276 334 319 182 83 344 303 308 74 57 227 173 211 240 225 187 238 250 265 294 306 325 336 309 301 294 286 302 312 309 311 315 313 311 312 313
65 67 73 75 79 87 81 71 64 48 39 45 50 111 131 134 140 140 116 98 91 84 93 111 97 66 59 66 67 68 52 35 2 343 107 99 313 261 147 117 184 220 147 81 145 201 177 168 153 107 244 239 139 66 13 30 313 286 351 31 306 259 234 182 227 274 281 263 268 291 309 314 314 312 308 302 297 305 319 319 312 309 310 310 309 308 308
66 69 76 80 83 85 78 68 61 51 47 55 63 81 120 138 139 128 109 101 96 86 83 79 71 83 65 57 90 65 328 324 278 249 129 87 4 311 304 334 30 21 5 15 166 138 121 178 168 97 233 233 141 101 4 42 79 223 46 3 310 290 314 303 279 309 313 308 310 315 319 316 312 310 308 306 309 315 320 317 311 309 310 308 306 304 304
70 74 80 85 86 83 77 68 58 50 45 50 67 84 106 144 156 147 81 52 104 115 105 345 334 128 106 2 84 318 325 324 201 201 275 285 93 74 300 304 63 119 275 269 110 84 76 115 152 124 202 245 212 186 202 88 104 153 78 18 319 314 358 344 317 308 292 285 293 303 307 300 294 297 306 315 316 315 314 312 306 302 302 301 299 301 301
73 79 81 83 86 86 82 73 60 51 44 41 52 72 220 195 188 203 13 70 90 98 103 9 289 239 217 351 51 344 339 354 138 171 320 323 334 112 276 340 24 133 94 63 76 105 106 106 111 123 187 248 96 148 186 81 92 105 66 23 309 316 356 335 310 297 278 278 298 316 318 304 286 288 307 313 313 312 312 311 306 303 303 303 302 302 300
68 79 79 82 92 98 92 71 46 34 34 44 55 56 44 131 171 245 280 205 55 47 85 147 288 298 237 156 91 336 340 3 82 75 29 21 17 29 23 21 34 69 63 50 52 96 90 74 86 159 204 246 73 110 163 102 99 90 47 12 345 353 352 336 330 326 312 309 320 329 324 310 302 311 316 315 314 313 312 312 312 312 312 311 310 310 308
61 71 83 95 102 107 82 7 354 353 358 19 52 59 58 61 59 28 340 260 150 125 126 152 209 33 100 139 320 332 351 20 55 81 63 46 60 72 44 39 70 81 73 76 113 96 80 92 168 176 184 172 61 78 58 40 65 69 32 7 4 359 342 330 327 316 302 303 312 320 312 300 302 312 316 316 317 316 313 315 317 315 314 315 313 312 312
60 66 87 107 110 304 315 330 336 339 342 324 264 309 41 37 35 34 34 63 97 104 103 102 77 35 91 244 306 331 360 21 48 85 81 60 74 75 47 50 94 113 102 95 107 105 100 150 179 176 29 121 127 111 46 39 59 70 34 7 356 347 331 319 313 305 296 298 310 316 309 301 304 310 310 312 317 319 317 316 316 315 316 317 315 311 310
52 58 69 73 54 346 350 0 358 355 356 336 220 11 26 16 15 19 28 57 90 107 111 109 103 307 296 254 295 350 16 37 59 77 81 76 71 57 51 59 71 87 78 56 71 115 130 349 353 318 305 357 107 113 81 56 62 35 5 356 347 340 333 325 314 304 298 302 311 312 305 301 302 304 304 308 317 319 315 311 313 315 316 316 314 309 306
22 31 35 36 33 25 16 12 10 12 14 20 103 69 66 18 346 357 15 47 58 116 110 97 81 319 341 11 49 40 32 47 74 80 79 78 63 48 53 56 31 39 60 54 57 102 107 26 21 349 333 23 77 111 108 67 18 327 341 348 342 334 334 328 316 305 302 307 310 307 302 299 302 305 307 313 319 319 314 310 313 315 314 312 309 305 304
342 342 343 353 355 352 350 346 351 10 27 41 63 81 89 20 345 345 4 53 345 151 109 80 41 316 333 351 25 39 38 63 86 74 61 55 46 32 33 40 41 49 67 84 78 51 57 102 71 356 345 31 68 98 88 57 21 336 334 337 331 327 330 322 314 310 307 309 312 312 311 314 319 316 314 317 321 320 317 317 318 316 313 311 309 309 314
323 321 319 315 315 322 329 335 342 358 22 44 62 68 52 28 12 0 6 75 32 77 100 92 75 337 316 195 91 18 20 39 42 38 42 28 5 9 11 15 32 40 32 46 94 50 21 119 92 29 353 26 73 94 71 36 2 329 325 325 322 322 322 315 311 312 313 317 319 315 311 313 314 315 316 318 318 316 317 320 318 315 314 314 316 323 330
311 315 319 310 305 311 314 323 339 350 351 29 62 54 44 43 38 34 40 110 112 59 60 75 96 318 327 7 46 10 14 21 345 5 31 1 357 35 15 346 13 43 24 22 76 47 357 28 71 38 342 357 49 76 41 360 342 331 327 326 322 322 321 319 321 323 323 320 314 305 303 307 310 315 317 314 312 316 321 321 317 315 316 323 331 334 332
308 312 316 312 312 311 308 316 340 355 17 66 62 31 43 61 49 41 42 42 38 36 24 39 73 68 356 355 333 325 4 37 359 353 39 340 358 58 111 12 19 38 16 6 59 51 8 18 81 59 351 3 41 54 6 338 333 333 333 329 328 331 330 329 330 330 326 321 314 311 315 318 318 317 314 310 316 325 324 319 319 324 329 330 330 329 327
311 308 312 316 317 310 298 327 18 23 38 53 8 9 45 134 26 31 42 43 44 66 140 59 60 81 28 343 299 315 358 10 319 331 12 8 359 20 72 69 49 21 18 41 49 37 5 14 76 49 11 23 63 59 354 332 330 332 333 329 326 327 325 324 327 329 326 325 325 323 322 323 319 312 309 314 326 327 322 322 331 338 337 331 327 328 328
314 312 314 316 328 351 13 80 75 33 7 341 91 67 77 134 277 12 39 40 38 47 79 91 68 65 349 301 291 332 355 340 312 351 353 322 328 345 43 73 64 296 23 33 20 350 358 16 79 81 60 72 105 90 354 342 332 325 327 327 323 319 318 325 333 334 333 334 337 337 333 329 323 320 324 329 329 327 327 332 339 340 334 328 325 324 321
313 316 319 335 51 57 41 287 307 342 348 91 139 96 38 27 45 29 6 15 22 27 53 77 69 307 351 324 303 340 2 336 334 8 354 262 310 345 29 79 100 186 37 2 287 262 31 21 58 97 117 134 90 21 329 341 334 318 323 329 322 317 325 343 348 347 344 341 342 341 336 330 330 336 340 334 327 329 335 337 335 331 324 318 316 317 316
320 316 18 86 90 121 206 282 326 345 96 120 127 99 4 16 46 25 338 359 18 7 27 54 54 280 23 6 319 346 34 34 358 2 359 321 332 345 5 52 71 66 53 359 289 38 53 13 20 79 144 289 347 354 342 344 342 333 335 333 325 325 342 354 355 353 347 337 332 326 321 325 334 338 332 324 323 331 336 334 330 325 320 318 321 322 322
33 130 113 96 107 138 108 14 11 141 126 57 33 54 34 23 40 57 351 27 32 356 356 40 329 259 44 41 301 315 26 40 14 343 352 316 284 57 55 42 71 63 48 332 307 45 80 81 22 41 2 319 340 351 347 343 340 340 339 335 333 344 355 354 351 348 340 331 328 325 322 326 331 327 320 322 330 332 329 326 324 325 328 331 332 334 338
181 122 85 103 126 121 86 56 53 94 110 45 29 45 42 6 1 30 42 40 28 323 300 42 21 330 341 43 264 282 355 30 68 129 97 323 301 77 49 336 343 76 60 284 299 59 79 69 22 1 291 313 336 342 341 342 344 342 339 338 344 356 356 349 346 344 338 334 334 332 328 329 332 328 325 326 325 319 318 323 328 333 336 336 336 340 342
153 121 110 112 111 107 83 50 35 30 45 55 38 28 10 344 1 14 21 41 27 304 299 32 12 306 296 316 270 243 308 3 21 85 77 342 318 98 79 329 10 63 62 277 340 56 63 44 344 296 292 328 344 344 343 345 344 339 337 342 352 357 352 346 341 338 338 338 335 330 331 337 336 329 322 320 321 325 332 336 336 334 334 334 337 340 338
128 124 124 115 78 43 30 23 21 33 53 44 32 19 356 354 17 22 342 312 352 350 324 329 332 318 310 322 289 246 294 350 10 82 77 347 349 65 54 22 26 41 350 3 48 51 55 110 255 292 326 348 350 345 343 341 337 334 337 348 355 351 346 342 337 334 336 339 336 334 338 337 327 320 322 331 338 341 340 338 336 333 332 333 338 338 334
137 102 86 81 25 16 19 356 4 43 52 27 43 83 5 340 341 347 320 311 325 338 317 327 357 345 321 318 14 2 328 343 47 64 19 343 21 54 50 26 343 324 345 36 46 35 339 229 244 301 342 350 345 341 339 335 334 335 341 349 350 346 343 340 337 333 335 339 339 339 337 329 323 328 341 347 347 343 337 334 336 336 335 335 335 334 334
151 9 33 44 10 3 22 350 358 41 58 19 153 148 143 302 270 250 259 244 226 320 327 3 50 344 283 283 9 40 322 339 22 21 342 12 31 39 47 309 354 35 50 39 12 347 328 305 301 335 348 342 336 336 336 335 339 346 349 346 344 344 343 340 336 336 339 339 337 336 334 332 337 348 349 344 342 341 337 335 337 337 337 338 337 335 337
97 55 72 82 18 346 56 68 17 26 71 70 195 163 170 208 229 235 241 120 23 316 310 311 13 298 287 302 4 34 2 19 25 354 67 69 44 339 249 70 40 45 49 21 338 295 289 301 322 344 342 333 331 335 337 339 347 354 354 344 340 342 342 338 336 339 339 333 329 334 342 345 348 348 343 339 341 341 338 337 340 341 341 342 340 336 335
86 62 74 87 48 1 50 88 65 44 138 167 186 201 222 244 248 249 290 42 270 288 296 287 231 217 264 298 8 15 359 35 49 356 9 76 58 319 8 55 52 61 82 353 287 271 280 314 338 340 332 329 335 338 338 344 353 354 349 341 340 340 339 337 338 340 335 328 329 343 351 349 346 344 341 339 339 339 340 342 345 346 346 344 340 336 335
92 48 59 97 131 15 37 108 119 61 31 246 225 245 271 305 328 329 324 297 284 313 328 329 51 76 301 318 64 42 336 15 56 16 353 63 61 356 11 28 353 298 188 191 260 292 313 328 331 329 329 336 340 337 339 349 353 349 345 345 342 339 337 338 340 336 332 332 342 352 351 346 344 343 340 337 337 340 343 344 345 347 347 344 340 337 337
73 72 65 87 126 130 140 128 103 57 334 321 332 355 18 25 325 294 303 325 329 315 281 215 140 83 326 337 60 54 8 12 47 26 12 37 53 44 33 20 328 305 267 227 280 318 326 323 322 328 337 342 337 335 342 350 348 345 346 344 339 337 337 337 334 332 335 344 351 350 346 344 343 341 339 339 340 341 343 344 346 347 346 343 339 337 337
53 66 59 36 50 57 286 37 66 19 321 330 353 5 8 2 318 304 330 359 336 327 6 82 75 53 24 28 46 46 25 2 52 56 40 38 77 98 47 304 262 276 297 306 316 324 322 319 324 333 337 336 334 338 345 349 347 345 343 338 335 336 335 331 329 335 345 350 349 345 344 345 344 340 339 340 340 340 342 345 345 344 342 341 340 338 338
47 63 74 39 49 61 191 92 90 63 324 338 347 334 336 338 290 303 328 342 357 28 38 32 349 41 43 37 32 32 20 35 62 62 46 244 166 109 44 267 259 288 318 319 319 320 319 322 333 338 333 331 334 338 345 350 348 342 336 333 334 334 331 329 336 346 349 347 346 346 345 343 342 340 340 341 341 342 343 343 343 341 340 339 340 340 339
52 63 75 37 36 54 73 78 85 88 2 328 286 292 333 317 280 298 320 345 42 70 48 340 84 66 56 53 51 34 34 43 46 34 350 253 164 137 204 263 292 317 319 312 316 320 318 324 334 333 326 324 329 337 346 348 344 337 334 335 335 332 332 339 348 350 346 344 346 345 343 341 342 343 344 345 346 346 343 340 340 340 339 338 340 341 340
Height
851 850 850 850 849 849 848 847 847 845 845 843 842 841 841 843 842 840 840 840 840 840 845 859 864 856 861 870 870 870 870 867 868 869 868 866 866 865 862 861 860 859 859 860 859 856 853 854 854 852 854 857 864 879 885 879 871 865 862 865 870 868 865 861 851 844 849 861 870 872 870 867 860 860 868 867 861 857 855 858 862 863 862 864 873 853 804
851 851 850 850 849 849 848 848 847 846 846 844 843 842 844 846 844 842 841 839 839 841 845 849 849 854 866 868 865 869 871 867 866 865 863 864 864 860 859 861 860 861 865 862 858 857 851 848 853 858 857 860 876 889 887 880 872 867 867 868 867 863 859 859 852 842 841 845 849 854 859 862 856 858 869 869 866 869 869 873 877 865 850 849 853 833 796
851 851 850 850 849 849 849 848 847 847 846 845 844 844 845 845 844 844 843 840 841 846 851 850 847 854 861 859 860 864 865 867 868 865 864 867 867 860 859 864 864 864 867 863 861 863 855 849 857 863 861 864 879 887 885 882 877 875 881 879 871 864 863 862 853 848 846 837 833 838 845 855 856 856 866 869 867 867 859 860 868 859 851 853 846 821 794
851 851 850 850 850 849 849 848 848 847 846 846 845 844 846 845 844 845 844 843 846 853 862 857 849 853 855 853 860 862 857 863 871 869 865 867 870 866 863 867 865 864 864 859 857 863 863 861 862 861 857 860 876 885 884 884 883 882 885 882 874 872 873 868 857 853 850 837 836 849 855 855 851 849 855 862 866 867 862 862 860 849 851 852 836 821 811
851 851 850 850 849 849 849 849 848 847 847 846 845 846 848 847 848 849 847 845 847 852 860 858 852 856 854 850 857 860 856 860 866 867 866 867 870 867 865 866 860 856 858 854 853 862 867 867 864 862 861 865 876 886 885 884 886 885 883 880 876 871 868 869 866 859 853 847 848 857 862 858 851 849 850 854 863 868 867 861 846 837 847 841 821 822 825
850 850 850 849 849 849 849 848 848 848 847 846 846 848 850 849 851 857 855 849 848 849 854 858 857 858 859 858 859 858 855 855 854 859 867 870 869 863 859 861 859 856 857 852 851 859 861 860 860 861 866 869 868 874 882 886 887 884 880 879 877 870 865 871 874 862 856 859 858 857 861 859 854 852 851 854 862 865 860 852 841 842 848 834 814 819 824
850 850 849 849 849 848 848 848 847 847 847 847 846 846 851 853 853 859 859 854 854 858 862 864 859 856 858 859 858 856 852 850 852 860 864 861 867 865 851 850 858 861 860 855 852 853 850 850 855 858 863 867 863 859 865 879 887 883 876 878 880 871 864 875 882 871 858 856 856 858 861 858 855 854 853 855 858 860 859 853 848 851 849 836 827 829 829
849 849 848 848 848 847 847 847 847 847 847 847 847 846 850 851 849 854 857 856 861 867 867 863 856 857 860 854 854 858 853 848 854 862 857 849 858 866 853 849 860 866 865 858 851 851 850 848 854 859 860 863 863 856 855 867 882 882 877 880 882 872 866 878 884 870 853 848 850 855 859 860 858 853 849 852 853 855 860 859 854 855 850 842 841 841 835
849 848 848 847 847 846 846 846 846 847 847 846 847 847 848 849 849 851 850 852 861 864 864 863 854 851 855 850 851 856 852 852 854 855 857 854 853 858 855 852 861 869 868 861 852 855 860 856 857 862 859 857 859 857 858 865 871 876 880 881 878 874 872 878 879 864 849 848 850 852 856 858 856 847 839 841 842 842 847 850 849 847 841 837 841 840 831
848 848 847 846 846 845 845 845 845 846 846 846 847 847 848 849 849 851 849 850 860 862 860 862 854 848 852 853 853 852 852 860 859 849 855 864 861 861 861 857 858 860 859 857 857 861 866 864 864 867 864 863 864 863 865 868 865 869 879 883 884 882 872 871 876 864 849 850 856 857 852 839 833 836 833 831 834 836 839 840 839 840 839 836 835 831 824
847 847 845 845 845 844 844 844 844 845 845 846 847 846 848 848 847 851 851 847 857 867 860 853 850 848 854 857 856 855 855 860 861 850 849 859 866 868 867 861 857 855 856 861 866 868 870 869 869 870 868 868 870 870 871 871 871 872 873 875 886 889 877 875 882 867 848 852 859 852 837 821 820 832 835 831 831 833 833 831 827 831 836 833 828 827 825
846 845 844 844 844 842 842 843 842 844 844 844 846 845 846 848 846 849 850 844 854 868 859 849 853 854 856 859 857 856 856 858 863 861 855 857 865 869 867 862 855 855 862 868 869 870 869 868 869 870 869 869 870 872 871 870 876 880 875 871 879 885 880 881 887 876 860 860 855 835 819 818 828 836 836 835 835 833 834 831 825 828 832 830 829 829 825
845 845 843 843 843 841 841 841 840 842 843 843 845 845 845 848 846 848 851 846 848 857 852 851 863 865 861 862 859 859 864 867 868 869 865 861 863 864 867 866 860 861 868 870 869 867 863 862 864 864 867 872 871 870 873 873 875 879 879 876 874 876 877 879 883 879 868 861 855 837 823 826 835 835 834 838 838 836 836 832 824 825 830 830 830 826 821
844 844 843 842 842 840 840 840 839 840 842 841 844 845 844 847 847 847 850 847 846 857 858 851 855 859 857 859 860 861 865 868 866 866 868 868 865 863 867 870 867 868 871 868 865 863 857 854 853 851 854 859 855 856 869 879 879 877 878 880 877 875 874 873 873 875 873 868 864 853 837 832 836 838 837 840 840 838 840 836 826 824 829 830 827 823 820
843 843 842 841 841 840 839 840 839 839 841 841 842 844 844 846 846 846 848 847 846 856 860 849 846 850 852 857 861 858 855 859 860 861 868 873 870 865 868 871 869 869 870 866 861 861 858 852 847 842 838 838 838 844 858 871 877 880 881 882 881 878 874 869 867 873 880 875 867 860 843 832 839 846 842 842 844 842 843 843 832 824 826 828 825 823 821
843 842 842 841 841 840 839 840 839 839 840 841 842 844 844 845 846 845 847 848 846 846 852 855 856 856 854 859 864 860 853 854 857 856 858 863 866 868 869 870 869 868 869 866 863 864 858 853 854 849 840 841 844 844 847 854 862 876 885 883 880 879 879 877 871 874 880 874 866 863 849 835 843 850 841 839 845 845 845 843 831 823 826 826 824 825 822
843 842 842 841 841 840 840 840 840 840 840 841 842 843 844 844 846 845 845 848 847 847 857 866 863 857 854 855 859 860 859 859 859 854 850 854 865 870 868 868 870 869 867 864 863 863 857 856 862 854 846 856 856 843 845 851 848 855 871 878 878 879 879 879 875 875 882 880 873 868 854 840 844 847 840 841 846 845 843 836 823 819 824 825 823 824 821
843 843 842 842 841 841 840 840 840 840 841 842 842 843 844 844 845 845 846 847 846 848 862 869 862 856 856 855 855 860 862 860 858 856 855 860 867 867 865 867 867 864 866 865 861 859 855 856 862 853 846 862 865 849 849 853 845 850 867 875 879 883 884 888 886 880 883 885 877 867 854 845 847 847 841 841 843 841 840 835 827 824 825 824 823 822 819
844 843 843 842 842 841 841 841 841 841 842 842 843 843 843 844 844 844 846 848 846 849 862 869 864 862 864 863 861 863 864 861 858 855 852 854 862 867 867 868 865 863 867 865 861 862 856 855 870 870 855 857 863 856 852 852 852 862 870 866 869 876 881 888 888 882 884 889 882 867 852 845 848 847 840 839 844 845 842 835 831 829 826 823 822 820 817
845 844 844 843 843 842 842 842 842 842 843 843 843 844 843 844 845 844 845 848 849 853 863 869 866 865 867 865 862 861 861 860 859 857 850 850 862 866 859 855 859 863 865 859 858 866 860 852 868 877 860 853 859 859 856 856 858 865 866 859 862 867 866 867 874 880 885 885 877 863 850 844 847 846 842 843 848 848 841 834 831 830 828 825 821 818 817
845 845 845 844 844 844 843 844 843 843 844 844 844 844 844 844 845 845 846 847 847 850 860 866 866 866 866 866 866 865 863 861 860 860 857 858 865 861 849 849 856 859 858 854 854 862 863 860 867 871 863 861 862 859 858 858 858 866 870 864 866 871 867 865 870 876 875 869 860 853 847 845 847 848 847 847 846 843 840 836 832 828 825 824 820 816 814
846 846 846 845 845 845 844 845 845 844 845 844 844 844 844 844 845 845 846 847 849 853 861 865 866 867 866 866 866 867 867 866 866 866 863 862 865 863 857 857 859 859 861 860 855 857 862 865 866 864 860 862 862 863 868 863 856 863 870 866 865 868 868 868 869 868 867 863 856 851 848 848 848 848 848 845 842 840 840 838 834 829 825 824 821 815 812
847 847 847 846 846 846 845 846 846 845 845 845 845 845 845 845 846 846 846 848 853 860 865 866 865 866 867 867 867 867 867 867 866 868 867 863 862 863 863 861 860 862 866 864 858 858 861 863 865 862 860 862 862 863 869 869 864 867 870 868 867 869 870 871 868 864 864 860 853 850 851 850 847 846 844 843 841 839 838 836 833 829 825 822 820 816 812
849 848 848 847 847 847 847 847 847 846 847 846 845 846 846 846 846 847 847 848 852 857 861 865 866 865 866 867 867 867 867 868 866 867 868 866 861 858 861 865 864 864 865 865 864 866 865 865 870 867 862 864 865 861 861 866 871 874 873 871 870 869 871 871 866 866 869 861 851 851 853 851 848 845 842 841 840 838 838 836 832 828 824 821 818 815 811
849 849 849 848 848 848 848 848 848 848 847 847 847 847 847 847 847 847 846 847 848 849 851 857 864 867 866 867 868 867 867 867 867 866 867 868 866 862 862 866 867 864 865 866 867 866 863 863 869 867 862 865 868 865 864 868 872 875 878 877 875 872 871 871 868 870 871 862 853 852 853 850 849 845 841 840 839 835 835 834 831 827 824 819 816 813 810
850 850 850 850 849 849 849 849 849 849 848 848 848 848 847 847 847 847 847 846 847 848 848 853 862 867 867 867 867 867 867 866 867 868 867 867 868 867 866 867 867 866 867 867 866 866 866 865 867 865 863 866 868 867 867 870 872 875 878 878 877 875 874 873 873 872 869 862 856 854 851 845 844 843 842 842 838 834 832 830 827 825 822 817 813 809 807
851 851 851 851 851 851 851 850 850 850 850 849 848 848 848 847 847 847 847 846 846 845 844 851 862 867 867 867 867 867 867 867 866 867 868 867 867 868 867 867 867 866 867 867 867 868 868 866 867 867 868 871 873 874 876 876 874 876 879 879 879 880 878 876 877 876 871 864 860 859 856 849 842 841 842 840 837 834 829 826 823 821 818 814 809 803 799
852 852 852 852 852 852 851 851 851 850 850 850 849 849 848 848 848 847 847 847 846 845 846 855 864 866 864 866 868 866 867 868 867 867 868 868 868 868 868 868 867 867 867 866 865 867 866 865 868 873 875 874 872 874 880 880 877 879 883 882 881 883 882 881 881 879 873 865 861 862 862 855 846 842 841 838 836 832 828 824 822 818 815 813 809 802 796
853 853 852 852 852 852 852 852 851 850 850 849 849 849 849 849 849 847 847 847 846 848 854 859 862 862 861 864 867 868 867 867 868 868 868 868 868 868 868 868 867 867 868 868 866 866 868 870 873 875 875 873 870 871 876 879 878 881 886 885 884 885 884 883 881 879 872 865 862 862 860 854 848 844 841 838 836 832 827 823 819 815 812 809 806 801 797
854 854 853 853 853 852 853 852 851 850 849 848 849 849 849 849 849 848 848 848 847 848 852 852 853 859 865 867 867 868 868 868 868 868 868 869 869 869 868 868 868 868 868 868 867 868 871 874 875 875 875 875 874 873 878 883 884 884 884 885 885 884 883 882 881 878 872 867 863 861 858 853 848 844 840 837 836 834 828 823 818 814 811 807 802 798 793
855 854 854 854 853 853 853 852 851 851 850 849 849 849 848 849 849 849 849 848 848 848 850 851 855 862 866 867 867 868 868 868 869 869 869 870 870 869 869 869 869 869 868 868 870 872 874 874 874 874 876 876 875 875 881 889 891 888 886 886 886 884 882 881 879 877 873 868 863 858 854 850 846 842 838 835 833 832 827 821 818 814 810 805 800 795 789
855 855 854 854 854 854 853 853 852 851 851 850 850 850 850 850 850 850 849 848 849 849 848 849 853 858 860 863 868 870 869 868 869 869 870 870 870 870 870 870 869 870 870 871 872 874 876 877 876 875 876 878 877 879 886 893 895 893 890 887 885 884 882 880 877 874 872 869 864 857 850 845 843 841 837 833 831 829 825 819 814 810 806 801 796 792 789
854 855 854 854 854 854 853 853 853 852 852 852 851 851 852 851 850 850 849 848 849 849 848 849 852 856 859 862 867 869 868 868 869 869 869 871 871 871 870 871 871 871 871 872 874 875 878 879 877 875 878 880 880 881 888 895 897 895 891 888 886 884 881 879 877 874 870 867 865 861 853 846 841 839 836 834 830 827 824 819 813 807 801 796 792 789 787
854 855 854 853 854 853 853 853 853 852 852 852 852 852 852 851 851 850 849 849 849 849 850 853 853 854 857 860 863 867 869 867 867 868 868 869 871 871 871 871 872 871 871 874 877 878 879 879 877 876 880 884 885 888 893 897 895 893 890 888 885 881 878 876 874 872 870 866 863 860 856 850 845 841 837 833 829 824 821 818 813 806 799 795 793 790 787
854 854 853 853 853 853 853 853 852 852 853 852 852 853 853 852 852 851 849 850 850 848 852 859 860 859 859 857 857 864 869 869 868 870 871 870 871 873 872 871 870 872 874 876 878 879 880 881 880 880 884 888 892 897 900 899 895 893 891 887 883 879 876 873 870 868 867 864 860 856 853 849 846 841 835 830 826 823 819 815 810 806 802 798 794 792 788
854 853 853 853 852 852 853 852 852 852 853 852 852 853 852 852 853 852 851 852 850 849 855 863 868 871 871 865 862 867 870 868 869 873 873 871 871 873 873 869 869 876 880 879 879 881 883 883 882 884 889 895 898 900 902 899 896 894 891 887 885 881 878 875 872 867 864 861 858 855 851 848 845 840 833 829 827 824 819 814 809 807 804 799 793 789 785
853 852 852 852 852 852 852 852 852 852 852 852 853 852 852 852 852 851 852 853 853 854 858 863 871 881 883 877 873 873 870 868 871 872 871 871 872 874 874 871 871 877 880 879 880 884 884 884 885 888 893 897 898 898 900 899 897 895 892 888 885 881 878 877 874 869 862 857 853 849 846 841 836 833 830 828 826 824 820 816 813 811 808 803 796 790 785
852 852 852 851 852 852 852 852 852 852 851 852 852 851 852 853 852 852 856 856 856 861 866 869 876 887 887 880 876 874 872 874 875 872 871 874 874 872 873 875 876 878 879 881 887 889 885 885 890 894 895 898 898 897 898 898 896 895 892 888 884 881 878 877 875 871 867 862 857 853 848 840 833 830 828 825 823 821 820 819 818 815 811 805 800 794 787
851 852 852 851 851 852 852 852 852 852 852 853 852 852 854 855 852 854 861 863 864 869 874 877 883 889 886 880 878 878 878 878 877 874 874 875 872 870 872 875 876 878 878 880 886 887 882 884 893 896 894 896 898 897 896 896 895 893 891 888 884 881 879 879 878 877 876 873 870 866 860 853 846 842 837 829 823 819 817 816 814 811 807 802 798 794 788
851 852 852 852 852 852 852 852 852 852 852 853 852 853 855 857 859 864 866 865 869 877 882 883 888 892 890 885 884 883 881 880 880 879 879 878 877 877 876 874 876 878 876 878 886 888 882 883 892 895 894 896 898 896 895 895 893 891 890 887 883 881 881 880 880 879 877 874 871 867 863 859 856 851 844 837 831 824 818 813 809 806 803 799 796 793 789
852 851 851 851 852 852 852 853 852 852 853 853 854 858 861 863 870 876 872 867 874 886 892 890 889 889 890 890 887 884 884 885 886 886 883 881 881 880 876 876 880 878 874 880 891 891 884 885 892 895 896 898 898 896 895 894 892 890 888 885 883 882 881 880 878 878 875 871 868 865 861 858 856 852 846 840 835 830 824 817 811 807 805 802 797 794 791
851 851 852 852 853 852 853 853 852 853 855 853 855 866 874 874 874 878 878 880 887 893 893 892 891 889 889 891 890 887 887 887 888 886 882 880 881 882 880 880 878 872 874 888 896 889 885 892 898 897 897 899 898 896 894 893 891 889 887 885 883 882 881 879 876 875 873 870 867 864 860 857 855 851 846 840 836 831 828 825 819 813 809 805 801 797 793
852 852 852 852 853 853 854 855 856 859 864 865 863 868 875 878 881 885 888 892 898 899 895 895 896 893 889 890 891 889 888 888 888 887 884 882 885 884 880 877 875 876 885 895 893 885 888 898 901 899 899 899 898 897 896 893 891 889 887 886 886 884 882 881 877 873 872 870 867 863 860 857 854 848 844 841 838 834 831 829 825 819 813 808 804 800 795
853 853 852 853 855 855 854 857 861 864 870 877 879 876 876 881 889 893 892 892 898 901 900 901 902 898 893 892 892 890 889 889 887 886 886 888 889 884 877 877 883 889 893 894 891 892 900 903 900 899 901 900 899 899 897 893 891 889 886 886 886 884 881 879 876 872 869 867 864 862 860 855 850 847 844 843 841 837 832 827 823 819 815 810 806 801 797
852 854 852 853 859 861 859 862 869 874 879 886 891 890 890 892 895 896 897 900 903 903 902 905 908 904 898 896 893 892 892 890 886 886 891 891 886 883 884 888 892 896 899 900 899 899 900 900 899 900 902 901 900 899 897 894 893 891 888 886 884 882 880 878 874 871 868 865 863 860 857 852 849 848 846 844 842 839 834 828 823 818 813 809 805 800 796
854 858 856 855 863 871 872 872 878 885 891 897 900 900 900 901 901 901 904 907 907 905 904 907 908 904 900 896 893 894 896 892 887 892 899 893 884 886 893 896 896 900 905 908 905 900 899 902 904 904 903 902 901 899 898 896 895 893 891 889 885 883 881 878 874 871 869 865 861 858 856 854 851 850 847 844 841 838 834 829 825 820 815 811 806 800 794
857 863 860 858 868 879 882 885 892 897 901 904 906 906 906 906 906 906 908 909 909 908 907 908 906 904 902 900 895 895 898 895 891 895 900 894 888 893 898 898 902 911 915 912 910 909 907 907 907 905 904 904 902 899 899 898 896 895 894 891 888 885 882 878 875 872 869 864 860 858 856 855 853 850 846 843 839 835 832 828 825 822 818 814 809 802 795
861 864 864 868 878 885 888 893 902 906 907 907 909 910 911 908 906 907 909 910 910 907 906 906 903 899 900 901 898 895 897 896 893 897 902 900 897 901 904 903 909 919 922 918 916 915 911 908 908 908 907 906 904 902 900 899 897 896 895 891 888 886 882 878 876 873 868 864 861 859 858 856 853 850 846 842 837 834 831 828 825 822 818 814 808 802 796
865 869 874 884 892 896 899 902 903 904 907 909 911 911 910 908 906 907 909 910 909 908 908 907 903 896 896 900 898 896 899 901 900 902 908 909 910 916 919 915 913 916 919 919 919 916 912 910 910 909 908 909 907 905 903 901 899 898 896 893 890 887 883 879 876 873 868 866 864 862 859 857 853 848 845 841 837 833 831 827 824 821 818 814 808 802 797
872 879 890 896 895 896 902 904 899 897 902 907 909 910 910 908 908 908 908 909 909 907 905 905 904 899 898 898 894 894 903 912 912 911 914 919 922 926 927 922 917 918 920 920 919 916 914 913 911 909 910 911 908 906 905 903 901 899 896 894 891 888 884 880 877 873 870 869 867 864 860 858 854 849 845 841 838 835 832 828 824 820 817 813 809 803 797
881 890 903 907 902 900 902 901 897 897 902 906 908 912 913 911 909 909 909 910 908 902 899 903 905 900 896 897 898 900 908 916 919 920 922 926 928 928 926 924 924 925 923 921 920 918 916 915 914 913 911 909 907 906 906 904 902 900 897 894 891 888 884 880 877 874 872 870 867 864 861 858 854 851 847 843 839 834 830 826 824 821 817 812 809 804 799
890 897 906 911 911 910 909 906 904 907 910 911 913 915 914 911 911 911 910 907 903 899 901 906 906 899 898 906 913 914 914 916 919 923 925 927 929 930 929 929 929 927 924 922 921 920 917 917 917 916 913 911 908 907 905 903 901 900 897 893 890 887 883 880 878 875 873 870 867 864 861 857 854 850 847 842 837 833 829 824 821 819 815 811 808 805 800